User: anonymous   Login
Location: Unspecified
(0.0000°N, 0.0000°E)
Time: 23:01:16
(UTC+00:00)
Language:

OBJECT AJ - Orbit

View from above orbital plane
View from above orbital plane
View from above satellite
View from above satellite

Ground track
Ground track

The orbit is defined by the following mean orbital elements,

1 67280U          26145.46790301 +.00000000 +00000-0 +21818-3 0 00007
2 67280  97.4003 220.5703 0014851  83.2119 277.0807 15.22182070    09
Epoch (UTC): 25 May 2026 11:13:46
Eccentricity: 0.0014851
inclination: 97.4003°
perigee height: 489 km
apogee height: 509 km
right ascension of ascending node: 220.5703°
argument of perigee: 83.2119°
revolutions per day: 15.22182070
mean anomaly at epoch: 277.0807°

The dashed part of the orbit path shows where the satellite is in the earth's shadow,  

DLR